sat.trackr.live / text

‹ back to catalog

STARLINK-36915

NORAD 68061 · 2026-041X

PAYLOAD ACTIVE UNKNOWN

§ Identity

Operator
Country
US
Launch date
2026-03-02
Launch site
AFETR
Launch vehicle
Mass (kg)
RCS (m²)

Purposes: comms

External: N2YO · Heavens-Above · Gunter

§ Orbital elements

Epoch: 2026-09-20T04:17:35.556864Z

Period
93.85 min
Inclination
53.1555°
Eccentricity
0.0000677
Mean motion
15.34396745 rev/d
Perigee alt
462.2 km
Apogee alt
463.2 km
Semi-major
6,840.8 km
B*
-1.0050e-4
RAAN
220.9360°
Arg perigee
44.6387°
Mean anomaly
315.4670°
Rev number
3,124

§ Raw data

STARLINK-369151 68061U 26041X   26263.17888376 -.00003769  00000+0 -10050-3 0  99962 68061  53.1555 220.9360 0000677  44.6387 315.4670 15.34396745 31244

JSON: /api/v1/satellites/68061 · /tle

For live sub-satellite position, see the globe view (requires WebGL).

§ Visibility from observer

Set your observer location to see the next 7 days of passes ≥ 10°. The values pass through the URL so the page stays shareable.

No JS? Fill the form by hand. The geolocation button needs JavaScript.